| time (UTC) | temp F | wind direction | speed knots | gust knots | rain 1hr in | rain 24hr in | rain mn in | humidity % | barometer mb |
| 20260505090024 | 68 | 160 | 10.4 | 15.6 | 0.00 | 0.00 | 0.00 | 72 | 1017.2 |
| 20260505085016 | 67 | 161 | 10.4 | 15.6 | 0.00 | 0.00 | 0.00 | 73 | 1017.4 |
| 20260505084024 | 66 | 145 | 9.6 | 13.9 | 0.00 | 0.00 | 0.00 | 76 | 1017.5 |
| 20260505083016 | 66 | 144 | 8.7 | 13.0 | 0.00 | 0.00 | 0.00 | 78 | 1017.3 |
| 20260505082045 | 66 | 147 | 8.7 | 13.0 | 0.00 | 0.00 | 0.00 | 78 | 1017.5 |
| 20260505081017 | 66 | 146 | 8.7 | 13.0 | 0.00 | 0.00 | 0.00 | 77 | 1017.6 |
| 20260505080024 | 66 | 153 | 8.7 | 13.0 | 0.00 | 0.00 | 0.00 | 77 | 1017.5 |
| 20260505075018 | 65 | 146 | 8.7 | 12.2 | 0.00 | 0.00 | 0.00 | 76 | 1017.4 |
| 20260505074025 | 65 | 158 | 8.7 | 13.0 | 0.00 | 0.00 | 0.00 | 79 | 1017.2 |
| 20260505073017 | 65 | 156 | 8.7 | 12.2 | 0.00 | 0.00 | 0.00 | 81 | 1017.5 |
| 20260505072025 | 64 | 141 | 7.8 | 11.3 | 0.00 | 0.00 | 0.00 | 82 | 1017.5 |
| 20260505071016 | 64 | 170 | 9.6 | 14.8 | 0.00 | 0.00 | 0.00 | 82 | 1017.6 |
| 20260505070024 | 64 | 172 | 9.6 | 13.9 | 0.00 | 0.00 | 0.00 | 82 | 1017.5 |
| 20260505065017 | 64 | 151 | 8.7 | 12.2 | 0.00 | 0.00 | 0.00 | 83 | 1017.5 |
| 20260505064024 | 63 | 160 | 8.7 | 13.0 | 0.00 | 0.00 | 0.00 | 84 | 1017.4 |
| 20260505063016 | 64 | 169 | 7.8 | 12.2 | 0.00 | 0.00 | 0.00 | 85 | 1017.3 |
| 20260505062025 | 63 | 157 | 7.8 | 12.2 | 0.00 | 0.00 | 0.00 | 88 | 1017.3 |
| 20260505061017 | 62 | 142 | 6.1 | 12.2 | 0.00 | 0.00 | 0.00 | 90 | 1017.2 |
| 20260505060024 | 61 | 149 | 7.8 | 11.3 | 0.00 | 0.00 | 0.00 | 91 | 1017.1 |
| 20260505055017 | 60 | 156 | 8.7 | 13.9 | 0.00 | 0.00 | 0.00 | 92 | 1017.2 |
| 20260505054044 | 60 | 147 | 7.8 | 12.2 | 0.00 | 0.00 | 0.00 | 91 | 1017.2 |
| 20260505053016 | 59 | 150 | 6.1 | 9.6 | 0.00 | 0.00 | 0.00 | 91 | 1017.2 |
| 20260505052024 | 58 | 218 | 1.7 | 3.5 | 0.00 | 0.00 | 0.00 | 90 | 1017.3 |
| 20260505051017 | 56 | 177 | 2.6 | 3.5 | 0.00 | 0.00 | 0.00 | 89 | 1017.1 |
| 20260505041016 | 53 | 0.0 | 0.0 | 0.00 | 0.00 | 0.00 | 91 | 1016.8 | |
| 20260505040024 | 52 | 0.0 | 0.0 | 0.00 | 0.00 | 0.00 | 91 | 1016.9 | |
| 20260505035016 | 52 | 103 | 0.0 | 1.7 | 0.00 | 0.00 | 0.00 | 90 | 1016.8 |
| 20260505034024 | 53 | 97 | 1.7 | 1.7 | 0.00 | 0.00 | 0.00 | 91 | 1016.8 |
| 20260505033016 | 53 | 64 | 0.0 | 1.7 | 0.00 | 0.00 | 0.00 | 92 | 1016.9 |
| 20260505032025 | 53 | 73 | 1.7 | 2.6 | 0.00 | 0.00 | 0.00 | 92 | 1016.8 |
| 20260505031018 | 53 | 102 | 0.9 | 1.7 | 0.00 | 0.00 | 0.00 | 92 | 1017.0 |
| 20260505030026 | 54 | 62 | 1.7 | 2.6 | 0.00 | 0.00 | 0.00 | 92 | 1016.9 |
| 20260505025019 | 53 | 59 | 0.9 | 2.6 | 0.00 | 0.00 | 0.00 | 92 | 1017.0 |
| 20260505024026 | 53 | 42 | 0.0 | 0.9 | 0.00 | 0.00 | 0.00 | 92 | 1017.1 |
| 20260505023039 | 54 | 0.0 | 0.0 | 0.00 | 0.00 | 0.00 | 92 | 1017.0 | |
| 20260505022026 | 54 | 0.0 | 0.0 | 0.00 | 0.00 | 0.00 | 92 | 1017.1 | |
| 20260505021020 | 54 | 0.0 | 0.0 | 0.00 | 0.00 | 0.00 | 92 | 1017.0 | |
| 20260505020026 | 54 | 0.0 | 0.0 | 0.00 | 0.00 | 0.00 | 92 | 1016.9 | |
| 20260505015018 | 54 | 0.0 | 0.0 | 0.00 | 0.00 | 0.00 | 92 | 1016.9 | |
| 20260505014026 | 54 | 78 | 0.9 | 1.7 | 0.00 | 0.00 | 0.00 | 92 | 1016.9 |
| 20260505013019 | 54 | 93 | 0.9 | 1.7 | 0.00 | 0.00 | 0.00 | 92 | 1017.0 |
| 20260505012026 | 54 | 92 | 0.0 | 1.7 | 0.00 | 0.00 | 0.00 | 91 | 1017.0 |
| 20260505011039 | 54 | 83 | 0.9 | 1.7 | 0.00 | 0.00 | 0.00 | 91 | 1017.1 |
| 20260505010026 | 55 | 90 | 2.6 | 3.5 | 0.00 | 0.00 | 0.00 | 91 | 1017.1 |
| 20260505005018 | 54 | 90 | 1.7 | 1.7 | 0.00 | 0.00 | 0.00 | 91 | 1017.1 |
| 20260505004026 | 55 | 82 | 0.0 | 1.7 | 0.00 | 0.00 | 0.00 | 90 | 1017.1 |
| 20260505003018 | 55 | 80 | 0.9 | 1.7 | 0.00 | 0.00 | 0.00 | 90 | 1017.1 |
| 20260505002026 | 55 | 79 | 0.9 | 1.7 | 0.00 | 0.00 | 0.00 | 90 | 1017.2 |
| 20260505001019 | 55 | 0.0 | 0.0 | 0.00 | 0.00 | 0.00 | 90 | 1017.2 | |
| 20260505000026 | 55 | 0.0 | 0.0 | 0.00 | 0.00 | 0.00 | 89 | 1017.4 | |
| 20260504235039 | 56 | 42 | 0.0 | 1.7 | 0.00 | 0.00 | 0.00 | 90 | 1017.5 |
| 20260504234026 | 56 | 41 | 0.9 | 1.7 | 0.00 | 0.00 | 0.00 | 90 | 1017.6 |
| 20260504233059 | 56 | 33 | 0.0 | 1.7 | 0.00 | 0.00 | 0.00 | 90 | 1017.7 |
| 20260504232026 | 56 | 13 | 0.9 | 1.7 | 0.00 | 0.00 | 0.00 | 91 | 1017.7 |
| 20260504231019 | 53 | 71 | 1.7 | 2.6 | 0.00 | 0.00 | 0.00 | 91 | 1017.9 |
| 20260504230026 | 54 | 92 | 0.0 | 1.7 | 0.00 | 0.00 | 0.00 | 90 | 1018.0 |
| 20260504225019 | 55 | 0.0 | 0.0 | 0.00 | 0.00 | 0.00 | 90 | 1018.0 | |
| 20260504224027 | 56 | 0.0 | 0.0 | 0.00 | 0.00 | 0.00 | 91 | 1018.0 | |
| 20260504223039 | 56 | 346 | 0.9 | 1.7 | 0.00 | 0.00 | 0.00 | 91 | 1018.1 |
| 20260504222026 | 56 | 329 | 0.9 | 1.7 | 0.00 | 0.00 | 0.00 | 91 | 1018.1 |
| 20260504221019 | 56 | 319 | 1.7 | 2.6 | 0.00 | 0.00 | 0.00 | 91 | 1018.0 |
| 20260504220026 | 56 | 286 | 1.7 | 2.6 | 0.00 | 0.00 | 0.00 | 91 | 1018.1 |
| 20260504215019 | 57 | 285 | 0.9 | 2.6 | 0.00 | 0.00 | 0.00 | 90 | 1018.1 |
| 20260504214027 | 58 | 0.0 | 0.0 | 0.00 | 0.00 | 0.00 | 90 | 1018.1 | |
| 20260504213019 | 59 | 0.0 | 0.0 | 0.00 | 0.00 | 0.00 | 90 | 1018.1 | |
| 20260504212026 | 60 | 0.0 | 0.0 | 0.00 | 0.00 | 0.00 | 90 | 1018.2 | |
| 20260504211020 | 60 | 53 | 0.9 | 1.7 | 0.00 | 0.00 | 0.00 | 90 | 1018.2 |
| 20260504210046 | 59 | 0.0 | 0.0 | 0.00 | 0.00 | 0.00 | 90 | 1018.4 | |
| 20260504205020 | 59 | 0.0 | 0.0 | 0.00 | 0.00 | 0.00 | 89 | 1018.5 | |
| 20260504204026 | 58 | 0.0 | 0.0 | 0.00 | 0.00 | 0.00 | 88 | 1018.3 | |
| 20260504203018 | 58 | 330 | 0.0 | 0.9 | 0.00 | 0.00 | 0.00 | 88 | 1018.2 |
| 20260504202026 | 58 | 296 | 2.6 | 2.6 | 0.00 | 0.00 | 0.00 | 86 | 1018.2 |
| 20260504201019 | 59 | 200 | 0.9 | 2.6 | 0.00 | 0.00 | 0.00 | 86 | 1018.0 |
| 20260504200026 | 59 | 114 | 0.9 | 1.7 | 0.00 | 0.00 | 0.00 | 85 | 1017.9 |
| 20260504195058 | 59 | 113 | 1.7 | 2.6 | 0.00 | 0.00 | 0.00 | 84 | 1017.8 |
| 20260504194026 | 59 | 0.0 | 0.0 | 0.00 | 0.00 | 0.00 | 82 | 1017.9 | |
| 20260504193018 | 59 | 0.0 | 0.9 | 0.00 | 0.00 | 0.00 | 81 | 1017.9 | |
| 20260504192107 | 60 | 142 | 0.9 | 1.7 | 0.00 | 0.00 | 0.00 | 80 | 1018.0 |
| 20260504191018 | 61 | 112 | 0.9 | 2.6 | 0.00 | 0.00 | 0.00 | 79 | 1017.8 |
| 20260504190026 | 62 | 0.0 | 0.0 | 0.00 | 0.00 | 0.00 | 78 | 1017.7 | |
| 20260504185019 | 62 | 0.0 | 0.0 | 0.00 | 0.00 | 0.00 | 76 | 1017.6 | |
| 20260504184026 | 62 | 164 | 0.9 | 1.7 | 0.00 | 0.00 | 0.00 | 74 | 1017.7 |
| 20260504183018 | 63 | 146 | 1.7 | 1.7 | 0.00 | 0.00 | 0.00 | 73 | 1017.4 |
| 20260504182026 | 63 | 178 | 0.0 | 0.9 | 0.00 | 0.00 | 0.00 | 72 | 1017.4 |
| 20260504181018 | 63 | 223 | 0.9 | 1.7 | 0.00 | 0.00 | 0.00 | 71 | 1017.3 |
| 20260504180024 | 64 | 165 | 1.7 | 2.6 | 0.00 | 0.00 | 0.00 | 70 | 1017.4 |
| 20260504175038 | 65 | 140 | 2.6 | 3.5 | 0.00 | 0.00 | 0.00 | 67 | 1017.3 |
| 20260504174024 | 65 | 186 | 2.6 | 5.2 | 0.00 | 0.00 | 0.00 | 63 | 1017.3 |
| 20260504173017 | 66 | 158 | 3.5 | 6.1 | 0.00 | 0.00 | 0.00 | 59 | 1017.2 |
| 20260504172025 | 69 | 186 | 4.3 | 7.0 | 0.00 | 0.00 | 0.00 | 51 | 1017.2 |
| 20260504171017 | 70 | 100 | 0.9 | 1.7 | 0.00 | 0.00 | 0.00 | 45 | 1017.1 |
| 20260504170106 | 70 | 216 | 1.7 | 3.5 | 0.00 | 0.00 | 0.00 | 48 | 1017.0 |
| 20260504151016 | 76 | 206 | 0.9 | 3.5 | 0.00 | 0.00 | 0.00 | 39 | 1017.1 |
| 20260504141017 | 75 | 118 | 3.5 | 7.8 | 0.00 | 0.00 | 0.00 | 41 | 1016.9 |